When you browse on this site, cookies collect data to enhance your experience and personalize the content and advertising you see.
Visit our Privacy Policy to learn more. By continuing to use the site, you agree to this use of cookies and data.
  • In United Kingdom
  • List of Countries
  • For 7 days
  • Water Temperature
  • Weather Map
  • Weather Widgets
  • user-avatar
    Login

    Hourly Weather Chelmsford

    Today, 4 April, Saturday

    Time Temperature Precipitation Wind Pressure Humidity
    00:00 +5°C° 0 mm 2 mps 762 mmHg 83%
    01:00 +5°C° 0 mm 2 mps 762 mmHg 84%
    02:00 +5°C° 0 mm 2 mps 762 mmHg 86%
    03:00 +4°C° 0 mm 2 mps 762 mmHg 88%
    04:00 +4°C° 0 mm 2 mps 762 mmHg 89%
    05:00 +5°C° 0 mm 2 mps 762 mmHg 90%
    06:00 +5°C° 0 mm 2 mps 762 mmHg 91%
    07:00 +6°C° 0 mm 2 mps 762 mmHg 85%
    08:00 +8°C° 0 mm 3 mps 762 mmHg 80%
    09:00 +10°C° 0 mm 3 mps 762 mmHg 74%
    10:00 +11°C° 0 mm 4 mps 762 mmHg 70%
    11:00 +12°C° 0 mm 4 mps 762 mmHg 66%
    12:00 +13°C° 0 mm 5 mps 762 mmHg 62%
    13:00 +13°C° 0 mm 5 mps 762 mmHg 61%
    14:00 +13°C° 0 mm 5 mps 762 mmHg 60%
    15:00 +13°C° 0 mm 5 mps 761 mmHg 60%
    16:00 +12°C° 0 mm 4 mps 761 mmHg 65%
    17:00 +11°C° 0 mm 4 mps 761 mmHg 70%
    18:00 +10°C° 0 mm 3 mps 761 mmHg 75%
    19:00 +9°C° 0 mm 3 mps 761 mmHg 79%
    20:00 +8°C° 0 mm 3 mps 761 mmHg 83%
    21:00 +6°C° 0 mm 4 mps 761 mmHg 87%
    22:00 +6°C° 0 mm 4 mps 761 mmHg 85%
    23:00 +6°C° 0 mm 4 mps 761 mmHg 84%

    Tomorrow, 5 April, Sunday

    Time Temperature Precipitation Wind Pressure Humidity
    00:00 +6°C° 0 mm 4 mps 761 mmHg 82%
    01:00 +6°C° 0 mm 4 mps 761 mmHg 83%
    02:00 +6°C° 0 mm 4 mps 760 mmHg 84%
    03:00 +6°C° 0 mm 4 mps 760 mmHg 86%
    04:00 +5°C° 0 mm 4 mps 759 mmHg 87%
    05:00 +5°C° 0 mm 5 mps 759 mmHg 88%
    06:00 +5°C° 0 mm 5 mps 759 mmHg 89%
    07:00 +7°C° 0 mm 5 mps 758 mmHg 84%
    08:00 +9°C° 0 mm 6 mps 758 mmHg 79%
    09:00 +10°C° 0 mm 6 mps 758 mmHg 74%
    10:00 +13°C° 0 mm 6 mps 758 mmHg 70%
    11:00 +14°C° 0 mm 6 mps 757 mmHg 66%
    12:00 +16°C° 0 mm 6 mps 757 mmHg 62%
    13:00 +16°C° 0 mm 7 mps 756 mmHg 61%
    14:00 +16°C° 0 mm 7 mps 756 mmHg 60%
    15:00 +17°C° 0 mm 7 mps 755 mmHg 59%
    16:00 +16°C° 0 mm 7 mps 755 mmHg 64%
    17:00 +15°C° 0 mm 6 mps 755 mmHg 68%
    18:00 +14°C° 0 mm 6 mps 755 mmHg 72%
    19:00 +13°C° 0 mm 6 mps 755 mmHg 74%
    20:00 +13°C° 0 mm 6 mps 754 mmHg 75%
    21:00 +11°C° 0 mm 6 mps 754 mmHg 77%
    22:00 +11°C° 0 mm 6 mps 754 mmHg 76%
    23:00 +11°C° 0 mm 6 mps 754 mmHg 76%

    Day after tomorrow, 6 April, Monday

    Time Temperature Precipitation Wind Pressure Humidity
    00:00 +11°C° 0 mm 6 mps 754 mmHg 76%
    01:00 +11°C° 0 mm 6 mps 754 mmHg 77%
    02:00 +11°C° 0 mm 6 mps 754 mmHg 79%
    03:00 +12°C° 0 mm 5 mps 754 mmHg 81%
    04:00 +12°C° 0.2 mm 5 mps 755 mmHg 84%
    05:00 +10°C° 0.2 mm 5 mps 755 mmHg 88%
    06:00 +11°C° 0.2 mm 4 mps 755 mmHg 91%
    07:00 +12°C° 0.5 mm 4 mps 756 mmHg 87%
    08:00 +12°C° 0.5 mm 4 mps 756 mmHg 84%
    09:00 +13°C° 0.5 mm 5 mps 757 mmHg 80%
    10:00 +13°C° 0.1 mm 4 mps 758 mmHg 74%
    11:00 +14°C° 0.1 mm 4 mps 758 mmHg 68%
    12:00 +14°C° 0.1 mm 4 mps 759 mmHg 62%
    13:00 +14°C° 0.1 mm 4 mps 759 mmHg 64%
    14:00 +14°C° 0.1 mm 4 mps 760 mmHg 65%
    15:00 +14°C° 0.1 mm 4 mps 760 mmHg 67%
    16:00 +13°C° 0.1 mm 3 mps 761 mmHg 69%
    17:00 +12°C° 0.1 mm 3 mps 762 mmHg 72%
    18:00 +12°C° 0.1 mm 2 mps 762 mmHg 74%
    19:00 +10°C° 0 mm 2 mps 763 mmHg 77%
    20:00 +9°C° 0 mm 2 mps 764 mmHg 80%
    21:00 +8°C° 0 mm 2 mps 765 mmHg 83%
    22:00 +8°C° 0 mm 2 mps 765 mmHg 85%
    23:00 +8°C° 0 mm 3 mps 766 mmHg 87%

    7 April, Tuesday

    Time Temperature Precipitation Wind Pressure Humidity
    00:00 +7°C° 0 mm 3 mps 767 mmHg 89%
    01:00 +7°C° 0 mm 2 mps 767 mmHg 88%
    02:00 +6°C° 0 mm 2 mps 767 mmHg 87%
    03:00 +6°C° 0 mm 2 mps 768 mmHg 86%
    04:00 +6°C° 0 mm 1 mps 768 mmHg 85%
    05:00 +6°C° 0 mm 1 mps 769 mmHg 84%
    06:00 +6°C° 0 mm 1 mps 769 mmHg 83%
    07:00 +8°C° 0 mm 1 mps 769 mmHg 77%
    08:00 +9°C° 0 mm 0 mps 770 mmHg 71%
    09:00 +11°C° 0 mm 0 mps 770 mmHg 65%
    10:00 +13°C° 0 mm 1 mps 770 mmHg 60%
    11:00 +14°C° 0 mm 1 mps 770 mmHg 54%
    12:00 +15°C° 0 mm 1 mps 771 mmHg 49%
    13:00 +15°C° 0 mm 2 mps 771 mmHg 48%
    14:00 +16°C° 0 mm 2 mps 770 mmHg 48%
    15:00 +16°C° 0 mm 2 mps 770 mmHg 48%
    16:00 +14°C° 0 mm 2 mps 770 mmHg 56%
    17:00 +13°C° 0 mm 2 mps 770 mmHg 64%
    18:00 +11°C° 0 mm 3 mps 770 mmHg 72%
    19:00 +10°C° 0 mm 2 mps 770 mmHg 74%
    20:00 +9°C° 0 mm 2 mps 771 mmHg 76%
    21:00 +8°C° 0 mm 2 mps 771 mmHg 78%
    22:00 +7°C° 0 mm 2 mps 771 mmHg 79%
    23:00 +7°C° 0 mm 2 mps 771 mmHg 79%

    8 April, Wednesday

    Time Temperature Precipitation Wind Pressure Humidity
    00:00 +7°C° 0 mm 2 mps 771 mmHg 80%
    01:00 +8°C° 0 mm 1 mps 770 mmHg 81%
    02:00 +7°C° 0 mm 1 mps 770 mmHg 82%
    03:00 +7°C° 0 mm 1 mps 770 mmHg 84%
    04:00 +7°C° 0 mm 1 mps 770 mmHg 85%
    05:00 +8°C° 0 mm 1 mps 770 mmHg 85%
    06:00 +8°C° 0 mm 1 mps 770 mmHg 86%
    07:00 +9°C° 0 mm 2 mps 770 mmHg 81%
    08:00 +12°C° 0 mm 2 mps 769 mmHg 76%
    09:00 +13°C° 0 mm 3 mps 769 mmHg 71%
    10:00 +14°C° 0 mm 3 mps 769 mmHg 69%
    11:00 +16°C° 0 mm 3 mps 769 mmHg 67%
    12:00 +17°C° 0 mm 4 mps 768 mmHg 66%
    13:00 +17°C° 0 mm 4 mps 768 mmHg 67%
    14:00 +17°C° 0 mm 4 mps 767 mmHg 68%
    15:00 +17°C° 0 mm 3 mps 767 mmHg 69%
    16:00 +14°C° 0 mm 3 mps 767 mmHg 75%
    17:00 +13°C° 0 mm 3 mps 766 mmHg 80%
    18:00 +12°C° 0 mm 3 mps 766 mmHg 85%
    19:00 +11°C° 0 mm 3 mps 766 mmHg 87%
    20:00 +10°C° 0 mm 3 mps 766 mmHg 89%
    21:00 +9°C° 0 mm 2 mps 766 mmHg 91%
    22:00 +9°C° 0 mm 2 mps 766 mmHg 91%
    23:00 +9°C° 0 mm 2 mps 766 mmHg 90%

    9 April, Thursday

    Time Temperature Precipitation Wind Pressure Humidity
    00:00 +9°C° 0 mm 2 mps 766 mmHg 90%
    01:00 +9°C° 0 mm 2 mps 765 mmHg 90%
    02:00 +9°C° 0 mm 2 mps 765 mmHg 89%
    03:00 +9°C° 0 mm 2 mps 764 mmHg 89%
    04:00 +9°C° 0 mm 2 mps 764 mmHg 88%
    05:00 +9°C° 0 mm 2 mps 764 mmHg 88%
    06:00 +10°C° 0 mm 2 mps 764 mmHg 88%
    07:00 +13°C° 0 mm 2 mps 764 mmHg 82%
    08:00 +15°C° 0 mm 2 mps 764 mmHg 77%
    09:00 +17°C° 0 mm 2 mps 764 mmHg 72%
    10:00 +18°C° 0 mm 3 mps 763 mmHg 68%
    11:00 +19°C° 0 mm 3 mps 763 mmHg 64%
    12:00 +19°C° 0 mm 4 mps 763 mmHg 61%
    13:00 +19°C° 0 mm 4 mps 762 mmHg 61%
    14:00 +19°C° 0 mm 4 mps 762 mmHg 61%
    15:00 +19°C° 0 mm 4 mps 761 mmHg 62%
    16:00 +18°C° 0 mm 4 mps 761 mmHg 66%
    17:00 +17°C° 0 mm 3 mps 761 mmHg 71%
    18:00 +14°C° 0 mm 3 mps 761 mmHg 76%
    19:00 +13°C° 0 mm 3 mps 761 mmHg 78%
    20:00 +12°C° 0 mm 3 mps 761 mmHg 80%
    21:00 +12°C° 0 mm 2 mps 761 mmHg 82%
    22:00 +12°C° 0 mm 2 mps 761 mmHg 81%
    23:00 +12°C° 0 mm 2 mps 761 mmHg 80%
    Show more